Voltar ao catálogo

TIANHUI 2-01A

AtivoCiênciaSSO
NORAD 44207·PAYLOAD·🇨🇳 China

Lançado Apr 29, 2019 de Taiyuan Satellite Launch Center

Loading…

Próximas Passagens (próximas 24 horas)

TLE

AtualizadoSource: Space-Track

Época: Sep 14, 2026, 11:40 UTC

1 44207U 19024A   26257.48631281  .00001255  00000-0  67380-4 0  9999
2 44207  97.4848 260.2535 0001543 106.3184 253.8219 15.16747988115674

Acompanhe TIANHUI 2-01A em tempo real com AllMySat

Download on the App Store